GLOBALSTAR M003 [-]

Last updated on July 6, 2021, 3:36 p.m. UTC

1 25165U 98008D   21186.83790500 -.00000164  00000-0 -79824-3 0  9990
2 25165  51.9697 204.3165 0007548 264.5881 267.4133 12.11916845 58330
UTC
Height (km)
Latitude
Longitude
Inclination
Orbital Period
UTC large
Height (km)
Speed (km/s)
/
Latitude / Longitude
Inclination (degrees)
Orbital Period (minutes)
Azimuth
Elevation
Range (km)
Doppler Factor
iOS Compass Heading
iOS Angle